Preview of NWS' New Version of Forecast
This preview is not operational and should not be used for support decisions.

Regional Weather Roundup (RWR)

Issued by National Weather Service (NWS)

                            
000
ASUS44 KJAN 181810
RWRMS 

MISSISSIPPI HOURLY WEATHER ROUNDUP
NATIONAL WEATHER SERVICE JACKSON MS
100 PM CDT MON MAR 18 2019

NOTE: "FAIR: INDICATES FEW OR NO CLOUDS BELOW 12,000 FEET WITH NO
SIGNIFICANT WEATHER AND/OR OBSTRUCTIONS TO VISIBILITY.

MSZ001>002-007>008-010>013-018>021-025>028-034>036-181900-
NORTHWEST MISSISSIPPI
  
CITY           SKY/WX    TMP DP  RH WIND       PRES   REMARKS
BATESVILLE     MOCLDY    57  28  33 NE8G17    30.38F                  
CLARKSDALE     SUNNY     63  32  31 NE10      30.39F                  
CLEVELAND      FAIR      60  34  38 NE10      30.38S                  
GREENWOOD      FAIR      62  31  31 NE10      30.36F                  
6HR MIN TEMP:  36; 6HR MAX TEMP:  62;                                

GREENVILLE     FAIR      60  34  37 NE13      30.36F                  
6HR MIN TEMP:  41; 6HR MAX TEMP:  61;                                

OLIVE BRANCH   MOSUNNY   54  30  40 E8        30.41F                  
OXFORD         PTSUNNY   54  27  35 N10       30.40F                  
TUNICA           N/A     54  32  43 NE9       30.41F                  
WINONA         FAIR      57  32  38 NE7       30.36F                  
$$

MSZ003>006-009-014>017-022>024-029>033-037>039-181900-
NORTHEAST MISSISSIPPI
  
CITY           SKY/WX    TMP DP  RH WIND       PRES   REMARKS
ABERDEEN       FAIR      57  36  44 VRB5G14   30.37F                  
COLUMBUS AFB   FAIR      61  27  28 N12       30.35F                  
6HR MIN TEMP:  38; 6HR MAX TEMP:  61;                                

CORINTH        FAIR      55  25  30 N12G18    30.39F                  
GOLDN TRIANGLE FAIR      61  35  37 N12       30.36F                  
STARKVILLE     FAIR      57  32  38 N7        30.38F                  
TUPELO         PTSUNNY   56  29  35 N14       30.38F                  
6HR MIN TEMP:  36; 6HR MAX TEMP:  56;                                

$$

MSZ040-058-181900-
CENTRAL MISSISSIPPI
  
CITY           SKY/WX    TMP DP  RH WIND       PRES   REMARKS
JACKSON INTL   PTSUNNY   65  34  31 VRB5      30.32F                  
6HR MIN TEMP:  38; 6HR MAX TEMP:  66;                                

JACKSON HAWKNS FAIR      65  36  34 VRB5      30.33F                  
6HR MIN TEMP:  41; 6HR MAX TEMP:  65;                                

MADISON        FAIR      63  34  34 CALM      30.32F                  
MERIDIAN KEY   FAIR      66  33  29 N13       30.32F                  
6HR MIN TEMP:  37; 6HR MAX TEMP:  66;                                

MERIDIAN NAS   PTSUNNY   64  33  31 E8        30.34F                  
6HR MIN TEMP:  36; 6HR MAX TEMP:  64;                                

RAYMOND        FAIR      66  34  30 NE8       30.32F                  
VICKSBURG VKS  CLEAR     66  37  34 NW8       30.32F                  
$$

MSZ059>079-181900-
SOUTH MISSISSIPPI
  
CITY           SKY/WX    TMP DP  RH WIND       PRES   REMARKS
HATTIESBURG    FAIR      63  32  31 NE10      30.32F                  
6HR MIN TEMP:  37; 6HR MAX TEMP:  63;                                

LAUREL         CLEAR     63  33  32 NE10G17   30.31F                  
MCCOMB         FAIR      63  29  27 VRB5      30.31F                  
6HR MIN TEMP:  47; 6HR MAX TEMP:  63;                                

NATCHEZ        FAIR      66  34  30 E10G17    30.32F                  
6HR MIN TEMP:  36; 6HR MAX TEMP:  66;                                

PINE BELT      FAIR      63  34  33 NE10      30.32F                  
6HR MIN TEMP:  40; 6HR MAX TEMP:  64;                                

$$

MSZ080>082-181900-
COASTAL MISSISSIPPI
  
CITY           SKY/WX    TMP DP  RH WIND       PRES   REMARKS
BAY ST LOUIS   PTSUNNY   63  34  34 N6        30.30F                  
BILOXI         FAIR      63  32  31 NE14      30.28F                  
6HR MIN TEMP:  48; 6HR MAX TEMP:  64;                                

PASCAGOULA     FAIR      66  30  26 NE10      30.28F                  
6HR MIN TEMP:  46; 6HR MAX TEMP:  66;                                

GULFPORT       FAIR      64  34  32 VRB7      30.29F                  
6HR MIN TEMP:  50; 6HR MAX TEMP:  64;                                

$$

LAZ007>009-015>016-023>026-181900-
NORTHEAST LOUISIANA
  
CITY           SKY/WX    TMP DP  RH WIND       PRES   REMARKS
BASTROP        FAIR      66  34  30 E3        30.34F                  
TALLULAH/VBURG FAIR      65  38  36 NE9       30.33F                  
6HR MIN TEMP:  40; 6HR MAX TEMP:  65;                                

VIDALIA        FAIR      65  35  33 N7        30.32F                  
$$